(187906) = 2000 TZ49 = 2004 RS315

Discovered at Socorro on 2000-10-01 by LINEAR.

Orbit

Orbit type: Main Belt

Note: WebGL enabled browser required.

epoch2024-03-31.0
epoch JD2460400.5
perihelion date2021-03-27.74296
perihelion JD2459301.24296
argument of perihelion (°)238.74872
ascending node (°)47.46564
inclination (°)14.70206
eccentricity0.2645088
perihelion distance (AU)1.9281347
Tisserand w.r.t. Jupiter3.3
ΔV w.r.t. Earth (km/sec)9.8
semimajor axis (AU)2.6215604
mean anomaly (°)255.24856
mean daily motion (°/day)0.23220100
aphelion distance (AU)3.315
period (years)4.24
P-vector [x]0.25860626
P-vector [y]-0.77732224
P-vector [z]-0.57349188
Q-vector [x]0.94770725
Q-vector [y]0.31909925
Q-vector [z]-0.00516122
absolute magnitude15.74
phase slope0.15
uncertainty0
referenceMPEC 2024-D136
observations used753
oppositions17
arc length (days)9975
first opposition used1996
last opposition used2024
residual rms (arc-secs)0.74
perturbers coarse indicatorM-v
perturbers precise indicator003Ek
first observation date used1996-11-06.0
last observation date used2024-02-28.0
computer nameMPCLINUX
JD of orbit computation2456639.792552
perihelion JD uncertainty (days)6.2983E-05
argument of perihelion uncertainty (°)2.1496E-05
ascending node uncertainty (°)1.3140E-05
inclination uncertainty (°)8.0391E-06
eccentricity uncertainty 5.6414E-08
perihelion distance uncertainty (AU)1.5582E-07
Minimum Orbit Intersection Distances (in AU)
for orbit epoch: 2460400.5, reference: E2024-GB3
Mercury1.47475
Venus1.22092
Earth0.95629
Mars0.52701
Jupiter1.97641
Saturn5.85585
Uranus15.4546
Neptune26.7829

Observations

774 total observations over interval: 1996 11 06.27986 – 2024 02 28.478968
These data are available for download (format description).

Date (UT) J2000 RA J2000 Dec Magn Location Ref
1996 11 06.27986 03 01 00.01 +16 19 36.8 19.3 V 691 – Steward Observatory, Kitt Peak-Spacewatch MPS 115201
1996 11 06.30179 03 00 58.53 +16 19 36.7 19.5 V 691 – Steward Observatory, Kitt Peak-Spacewatch MPS 115201
1996 11 06.32377 03 00 56.99 +16 19 36.8 19.5 V 691 – Steward Observatory, Kitt Peak-Spacewatch MPS 115201
2000 09 30.37161 02 00 10.15 -00 12 26.0 18.9 R 699 – Lowell Observatory-LONEOS MPS 25210
2000 09 30.38872 02 00 09.18 -00 12 27.2   699 – Lowell Observatory-LONEOS MPS 25210
2000 09 30.40570 02 00 08.21 -00 12 29.5   699 – Lowell Observatory-LONEOS MPS 25210
2000 09 30.42279 02 00 07.11 -00 12 29.8   699 – Lowell Observatory-LONEOS MPS 25210
2000 10 01.32272 01 59 14.48 -00 13 29.5 18.3   704 – Lincoln Laboratory ETS, New Mexico MPS 21483
2000 10 01.33823 01 59 13.59 -00 13 30.9 18.4   704 – Lincoln Laboratory ETS, New Mexico MPS 21483
2000 10 01.35479 01 59 12.54 -00 13 31.3 18.5   704 – Lincoln Laboratory ETS, New Mexico MPS 21483
2000 10 01.38461 01 59 10.68 -00 13 33.1 18.6   704 – Lincoln Laboratory ETS, New Mexico MPS 21483
2000 10 02.34383 01 58 13.52 -00 14 36.0 18.1 R 699 – Lowell Observatory-LONEOS MPS 21483
2000 10 02.36540 01 58 12.20 -00 14 37.3   699 – Lowell Observatory-LONEOS MPS 21483
2000 10 02.38700 01 58 10.82 -00 14 38.5   699 – Lowell Observatory-LONEOS MPS 21483
2000 10 02.40859 01 58 09.58 -00 14 39.5   699 – Lowell Observatory-LONEOS MPS 21483
2000 10 02.434420 01 58 07.884 -00 14 41.32 19.24 V 645 – Apache Point-Sloan Digital Sky Survey MPS 79798
2000 10 02.437892 01 58 07.667 -00 14 41.42 20.02   645 – Apache Point-Sloan Digital Sky Survey MPS 79798
2000 10 29.23535 01 29 24.28 -00 13 30.6 18.8   704 – Lincoln Laboratory ETS, New Mexico MPS 37665
2000 10 29.26524 01 29 22.52 -00 13 27.6 18.9   704 – Lincoln Laboratory ETS, New Mexico MPS 37665
2000 10 29.27983 01 29 21.56 -00 13 25.1 19.1   704 – Lincoln Laboratory ETS, New Mexico MPS 37665
2000 10 29.29466 01 29 20.67 -00 13 22.7 18.9   704 – Lincoln Laboratory ETS, New Mexico MPS 37665
2003 03 22.19285 11 26 23.95 +24 33 11.6 19.6   644 – Palomar Mountain/NEAT MPS 115201
2003 03 22.21374 11 26 22.64 +24 33 14.0 19.6   644 – Palomar Mountain/NEAT MPS 115201
2003 03 22.23347 11 26 21.40 +24 33 15.8 19.9   644 – Palomar Mountain/NEAT MPS 115201
2003 03 26.25469 11 22 18.96 +24 37 44.4 19.7   704 – Lincoln Laboratory ETS, New Mexico MPS 115201
2003 03 26.26633 11 22 18.24 +24 37 41.9 19.6   704 – Lincoln Laboratory ETS, New Mexico MPS 115201
2003 03 26.27793 11 22 17.60 +24 37 43.3 19.7   704 – Lincoln Laboratory ETS, New Mexico MPS 115201
2003 03 26.28955 11 22 16.97 +24 37 42.0 20.2   704 – Lincoln Laboratory ETS, New Mexico MPS 115201
2003 04 07.17876 11 11 40.38 +24 26 49.5 19.8   644 – Palomar Mountain/NEAT MPS 115201
2003 04 07.29542 11 11 34.72 +24 26 32.4 20.4   644 – Palomar Mountain/NEAT MPS 115201
2003 04 07.31674 11 11 33.71 +24 26 29.4 19.8   644 – Palomar Mountain/NEAT MPS 115201
2004 09 08.27407 23 56 12.69 -26 34 23.1 17.3   644 – Palomar Mountain/NEAT MPS 115345
2004 09 08.33668 23 56 08.41 -26 34 27.1 17.3   644 – Palomar Mountain/NEAT MPS 115345
2004 09 08.39910 23 56 04.11 -26 34 29.6 17.3   644 – Palomar Mountain/NEAT MPS 115345
2004 09 15.59443 23 48 02.34 -26 32 21.4 18.3 R E12 – Siding Spring Survey MPS 114593
2004 09 15.60309 23 48 01.78 -26 32 20.4 18.3 R E12 – Siding Spring Survey MPS 114593
2004 09 15.61174 23 48 01.12 -26 32 20.1 17.2 R E12 – Siding Spring Survey MPS 114593
2004 09 15.62047 23 48 00.51 -26 32 19.3 18.3 R E12 – Siding Spring Survey MPS 114593
2004 09 17.28327 23 46 09.79 -26 29 36.3 17.4 R 699 – Lowell Observatory-LONEOS MPS 114593
2004 09 17.29546 23 46 08.97 -26 29 33.7   699 – Lowell Observatory-LONEOS MPS 114593
2004 09 17.30764 23 46 08.02 -26 29 32.0   699 – Lowell Observatory-LONEOS MPS 114593
2004 09 17.31984 23 46 07.22 -26 29 31.1   699 – Lowell Observatory-LONEOS MPS 114593
2004 10 09.21765 23 25 54.87 -24 31 42.0 18.0   644 – Palomar Mountain/NEAT MPS 116734
2004 10 09.24580 23 25 53.67 -24 31 27.7 18.0   644 – Palomar Mountain/NEAT MPS 116734
2004 10 09.28490 23 25 52.04 -24 31 07.8 18.3   644 – Palomar Mountain/NEAT MPS 116734
2004 10 13.19262 23 23 32.42 -23 56 40.1 18.4   704 – Lincoln Laboratory ETS, New Mexico MPS 116734
2004 10 13.20346 23 23 32.03 -23 56 34.5 18.5   704 – Lincoln Laboratory ETS, New Mexico MPS 116734
2004 10 13.21430 23 23 31.69 -23 56 28.7 18.8   704 – Lincoln Laboratory ETS, New Mexico MPS 116734
2004 10 13.22514 23 23 31.33 -23 56 22.6 18.7   704 – Lincoln Laboratory ETS, New Mexico MPS 116734
2004 10 16.19036 23 22 04.40 -23 28 06.9 18.9   704 – Lincoln Laboratory ETS, New Mexico MPS 117673
2004 10 16.20140 23 22 04.06 -23 27 59.6 18.9   704 – Lincoln Laboratory ETS, New Mexico MPS 117673
2004 10 16.23453 23 22 03.10 -23 27 41.3 18.6   704 – Lincoln Laboratory ETS, New Mexico MPS 117673
2007 02 21.24153 10 22 33.92 +32 59 59.1 19.9 V 703 – Catalina Sky Survey MPS 200261
2007 02 21.24801 10 22 33.45 +33 00 00.4 20.1 V 703 – Catalina Sky Survey MPS 200261
2007 02 21.25449 10 22 33.02 +33 00 02.9 20.0 V 703 – Catalina Sky Survey MPS 200261
2007 02 21.26095 10 22 32.73 +33 00 05.4 20.1 V 703 – Catalina Sky Survey MPS 200261
2008 05 13.65432 19 42 08.82 -35 55 04.5 18.3 V E12 – Siding Spring Survey MPS 249774
2008 05 13.66757 19 42 09.61 -35 55 14.2 18.5 V E12 – Siding Spring Survey MPS 249774
2008 05 13.68084 19 42 10.44 -35 55 23.7 18.3 V E12 – Siding Spring Survey MPS 249774
2008 05 13.69410 19 42 11.26 -35 55 33.1 18.6 V E12 – Siding Spring Survey MPS 249774
2008 06 10.58382 19 59 30.08 -42 14 03.9 18.0 V E12 – Siding Spring Survey MPS 251364
2008 06 10.59252 19 59 30.12 -42 14 11.9 18.0 V E12 – Siding Spring Survey MPS 251364
2008 06 10.60992 19 59 30.12 -42 14 27.6 18.0 V E12 – Siding Spring Survey MPS 251364
2008 06 26.68473 19 55 09.48 -45 59 44.3 17.6 V E12 – Siding Spring Survey MPS 252003
2008 06 26.70746 19 55 08.50 -46 00 00.8 17.7 V E12 – Siding Spring Survey MPS 252003
2008 06 26.71875 19 55 08.04 -46 00 08.4 17.3 V E12 – Siding Spring Survey MPS 252003
2008 08 03.51021 19 22 46.16 -49 29 05.3 17.8 V E12 – Siding Spring Survey MPS 253958
2008 08 03.51840 19 22 45.80 -49 29 04.0 17.9 V E12 – Siding Spring Survey MPS 253958
2008 08 19.50465 19 18 46.08 -48 06 43.4 18.5 V E12 – Siding Spring Survey MPS 255136
2008 08 19.51352 19 18 46.18 -48 06 38.5 18.1 V E12 – Siding Spring Survey MPS 255136
2008 08 19.53130 19 18 46.22 -48 06 30.4 18.5 V E12 – Siding Spring Survey MPS 255136
2008 08 27.43976 19 21 01.11 -47 01 58.9 18.9 V E12 – Siding Spring Survey MPS 255136
2008 08 27.45124 19 21 01.36 -47 01 52.6 18.9 V E12 – Siding Spring Survey MPS 255136
2008 09 19.46808 19 41 13.77 -43 03 18.2 19.2 V E12 – Siding Spring Survey MPS 257655
2008 09 19.47675 19 41 14.35 -43 03 12.2 18.9 V E12 – Siding Spring Survey MPS 257655
2008 09 19.48540 19 41 15.03 -43 03 04.9 18.9 V E12 – Siding Spring Survey MPS 257655
2008 09 19.49412 19 41 15.64 -43 02 59.7 18.9 V E12 – Siding Spring Survey MPS 257655
2009 11 11.31716 04 38 12.71 +28 27 29.5   691 – Steward Observatory, Kitt Peak-Spacewatch MPS 303083
2009 11 11.33437 04 38 11.66 +28 27 32.1   691 – Steward Observatory, Kitt Peak-Spacewatch MPS 303083
2009 11 11.35175 04 38 10.56 +28 27 35.0   691 – Steward Observatory, Kitt Peak-Spacewatch MPS 303083
2009 11 19.20637 04 29 50.53 +28 44 25.1 21.5 V 691 – Steward Observatory, Kitt Peak-Spacewatch MPS 304614
2009 11 19.22409 04 29 49.27 +28 44 27.4 20.3 V 691 – Steward Observatory, Kitt Peak-Spacewatch MPS 304614
2009 11 19.24181 04 29 48.11 +28 44 29.4 20.3 V 691 – Steward Observatory, Kitt Peak-Spacewatch MPS 304614
2009 11 23.25077 04 25 17.08 +28 50 38.7 20.1 V 691 – Steward Observatory, Kitt Peak-Spacewatch MPS 306473
2009 11 23.26855 04 25 15.87 +28 50 40.3 20.1 V 691 – Steward Observatory, Kitt Peak-Spacewatch MPS 306473
2009 11 23.28634 04 25 14.62 +28 50 41.5 20.2 V 691 – Steward Observatory, Kitt Peak-Spacewatch MPS 306473
2010 01 06.30363 03 45 15.94 +28 38 04.6 20.4 V G96 – Mt. Lemmon Survey MPS 310033
2010 01 06.30536 03 45 15.94 +28 38 04.4 20.3 V G96 – Mt. Lemmon Survey MPS 310033
2010 01 06.31080 03 45 15.80 +28 38 04.3 20.3 V G96 – Mt. Lemmon Survey MPS 310033
